Weather History for Haines, AK

Change the Weather History Date:

Wednesday, May 22, 2013

  Actual Average Record
Temperature  
Mean Temperature 51 °F -  
Max Temperature 60 °F 56 °F 78 °F (1974)
Min Temperature 44 °F 42 °F 35 °F (1984)
Degree Days  
Heating Degree Days 14    
Growing Degree Days 1 (Base 50)    
Moisture  
Dew Point 30 °F    
Average Humidity 45    
Maximum Humidity 68    
Minimum Humidity 33    
Precipitation  
Precipitation 0.00 in - - ()
Sea Level Pressure  
Sea Level Pressure 30.11 in    
Wind  
Wind Speed 11 mph (WNW)    
Max Wind Speed 15 mph    
Max Gust Speed 22 mph    
Visibility 10 miles    
Events      
Averages and records for this station are not official NWS values.
T = Trace of Precipitation, MM = Missing Value Source: NWS Daily Summary

Daily Weather History Graph

Daily Weather History Graph

Search for Another Location

Airport:

Trip Planner

Search our weather history database for the weather conditions in past years. The results will help you decide how hot, cold, wet, or windy it might be!

Date:

Astronomy

May. 22, 2013 Rise Set
Actual Time 4:14 AM AKDT 9:44 PM AKDT
Civil Twilight 3:07 AM AKDT 10:51 PM AKDT
Nautical Twilight 1:31 AM AKDT 12:26 AM AKDT
Astronomical Twilight Sun does not rise Sun does not rise
Moon 6:41 PM AKDT (5/22) 3:08 AM AKDT (5/22)
Length of Visible Light 19h 44m
Length of Day
17h 30m
Waxing Gibbous, 92% of the Moon is Illuminated
May 22
Waxing Gibbous
May 24
Full
May 31
Last Quarter
Jun 8
New
Jun 16
First Quarter

Hourly Weather History & Observations

Time (AKDT) Temp. Windchill Dew Point Humidity Pressure Visibility Wind Dir Wind Speed Gust Speed Precip Events Conditions
12:54 AM 50.0 °F - 21.9 °F 33% 30.16 in 10.0 mi NNW 15.0 mph 20.7 mph N/A   Clear
1:54 AM 50.0 °F - 23.0 °F 35% 30.16 in 10.0 mi NW 15.0 mph 21.9 mph N/A   Clear
2:54 AM 48.0 °F - 24.1 °F 39% 30.14 in 10.0 mi NW 13.8 mph 21.9 mph N/A   Clear
3:54 AM 46.9 °F - 24.1 °F 41% 30.14 in 10.0 mi WNW 13.8 mph - N/A   Clear
4:54 AM 48.0 °F - 24.1 °F 39% 30.13 in 10.0 mi WNW 11.5 mph - N/A   Mostly Cloudy
5:54 AM 48.9 °F - 23.0 °F 36% 30.12 in 10.0 mi NW 15.0 mph - N/A   Overcast
6:54 AM 46.9 °F - 27.0 °F 46% 30.12 in 10.0 mi WNW 11.5 mph - N/A   Overcast
7:54 AM 46.0 °F 41.0 °F 27.0 °F 47% 30.12 in 10.0 mi WNW 10.4 mph - N/A   Overcast
8:54 AM 48.0 °F - 30.0 °F 50% 30.11 in 10.0 mi West 10.4 mph - N/A   Overcast
9:54 AM 51.1 °F - 28.9 °F 43% 30.11 in 10.0 mi WNW 6.9 mph - N/A   Overcast
10:54 AM 55.0 °F - 30.0 °F 38% 30.10 in 10.0 mi West 6.9 mph - N/A   Overcast
11:54 AM 55.0 °F - 33.1 °F 43% 30.11 in 10.0 mi West 9.2 mph - 0.00 in   Overcast
12:54 PM 55.0 °F - 34.0 °F 45% 30.11 in 10.0 mi South 5.8 mph - N/A   Overcast
1:54 PM 55.0 °F - 34.0 °F 45% 30.09 in 10.0 mi Variable 5.8 mph - N/A   Overcast
2:54 PM 57.9 °F - 33.1 °F 39% 30.08 in 10.0 mi ESE 8.1 mph 18.4 mph N/A   Overcast
3:54 PM 57.9 °F - 32.0 °F 37% 30.07 in 10.0 mi ESE 6.9 mph 16.1 mph N/A   Mostly Cloudy
4:54 PM 57.9 °F - 33.1 °F 39% 30.07 in 10.0 mi SSE 9.2 mph - N/A   Clear
5:54 PM 57.9 °F - 37.0 °F 46% 30.07 in 10.0 mi Variable 6.9 mph - N/A   Clear
6:54 PM 57.9 °F - 33.1 °F 39% 30.07 in 10.0 mi ESE 5.8 mph - N/A   Clear
7:54 PM 55.9 °F - 37.0 °F 49% 30.08 in 10.0 mi ESE 6.9 mph - N/A   Clear
8:54 PM 50.0 °F - 36.0 °F 59% 30.09 in 10.0 mi Calm Calm - N/A   Clear
9:54 PM 48.0 °F - 35.1 °F 61% 30.10 in 10.0 mi ENE 3.5 mph - N/A   Clear
10:54 PM 45.0 °F 43.5 °F 35.1 °F 68% 30.11 in 10.0 mi East 3.5 mph - N/A   Clear
11:54 PM 44.1 °F - 34.0 °F 68% 30.11 in 10.0 mi Calm Calm - N/A   Clear